Temperature
14 14 14 14 14 14 14 14 14 14 14 14 14 14 14 14 14 14 14 14 14 14 14 14 14 15 15 15 15 15 15 15 15 15 15 15 14 14 14 14 14 14 14
14 14 14 14 14 14 14 14 14 14 14 14 14 14 14 14 14 14 14 14 14 14 14 14 14 14 14 14 15 15 15 15 15 14 14 14 14 14 14 14 14 14 14
14 13 13 13 13 14 14 14 14 14 14 14 14 14 14 14 14 14 14 14 14 14 14 14 14 14 14 14 14 14 14 14 14 14 14 14 14 14 14 14 14 14 14
13 13 13 13 13 14 14 14 14 13 14 14 14 14 14 14 14 14 14 14 14 14 14 14 14 14 14 14 14 14 14 14 14 14 13 13 14 14 14 14 14 14 14
13 13 13 13 13 13 13 13 13 13 13 13 13 14 14 14 14 13 13 14 14 14 14 13 14 14 14 14 14 14 14 14 14 13 13 13 13 13 13 13 14 14 14
13 12 13 13 13 13 13 13 13 13 13 13 13 13 13 13 13 13 13 13 13 14 13 13 13 13 13 14 14 14 14 14 13 13 13 13 13 13 13 13 13 13 13
12 12 12 12 12 13 13 13 13 13 13 13 13 13 13 13 13 13 13 13 13 13 13 13 13 13 13 13 13 13 13 13 13 13 12 12 12 13 13 13 13 13 13
12 12 12 12 12 12 12 12 12 13 13 13 13 13 13 13 13 13 13 13 13 13 13 13 13 13 13 13 13 13 13 13 13 12 12 12 12 12 12 13 13 12 12
11 11 11 11 12 12 12 12 12 12 12 12 13 13 13 13 13 13 13 13 13 13 13 13 13 13 13 13 13 12 12 12 12 12 12 12 12 12 12 12 12 12 12
11 11 11 11 11 11 12 12 12 12 12 12 12 12 12 12 12 12 12 12 13 12 12 12 12 12 12 12 12 12 12 12 11 11 11 11 12 12 12 12 12 12 12
10 11 11 11 11 11 11 11 11 12 12 12 12 12 12 12 12 12 12 12 12 12 12 12 12 12 12 12 12 12 11 11 11 11 11 11 11 11 11 11 11 11 11
10 10 10 10 11 11 11 11 11 11 11 11 11 11 11 11 12 12 12 12 12 12 12 12 12 12 12 11 11 11 11 11 11 11 11 11 11 11 11 11 11 11 11
10 10 10 10 10 10 10 10 10 11 11 11 11 11 11 11 11 11 11 11 11 11 11 11 11 11 11 11 11 11 10 10 10 10 10 10 10 10 10 10 10 10 10
9 9 10 10 10 10 10 10 10 10 10 10 10 10 10 10 10 10 11 11 11 11 11 11 11 11 11 11 10 10 10 10 10 10 10 10 10 10 10 10 10 10 10
9 9 9 9 9 9 9 9 9 10 10 10 10 10 10 10 10 10 10 10 10 10 10 10 10 10 10 10 10 10 10 10 10 10 10 10 10 10 10 10 10 10 10
8 8 9 9 9 9 9 9 9 9 9 9 10 10 10 10 10 10 10 10 10 10 10 10 10 10 10 10 10 10 10 10 9 9 9 9 9 9 9 9 9 9 9
8 8 8 8 8 8 8 8 8 8 8 9 9 9 9 9 9 9 9 9 9 9 9 9 9 9 9 9 9 9 9 9 9 9 9 9 9 9 9 9 9 9 9
7 7 8 8 8 8 8 8 8 8 8 8 8 8 8 8 9 9 9 9 9 9 9 9 9 9 9 9 8 8 8 8 8 9 9 9 9 9 9 9 9 9 9
6 7 7 7 7 7 7 7 7 7 7 7 8 8 8 8 8 8 8 8 8 8 8 8 8 8 8 8 8 8 8 8 8 8 8 8 8 8 8 8 8 8 8
6 6 6 7 6 6 6 6 6 6 7 7 7 7 7 7 8 8 8 8 8 8 8 8 8 8 8 8 7 7 7 7 7 7 7 8 8 8 8 8 8 8 8
5 5 6 6 6 6 6 6 6 6 6 6 6 6 6 7 7 7 7 7 7 7 7 7 7 7 7 7 7 7 6 7 7 7 7 7 7 7 7 7 7 7 7
4 5 5 5 5 5 5 5 5 6 6 6 6 6 6 6 6 6 6 7 7 6 6 6 7 7 6 6 6 6 5 5 5 6 6 6 6 7 7 7 7 7 7
4 4 4 5 5 5 5 5 5 5 5 5 5 5 5 5 6 6 6 6 6 6 6 6 6 6 6 6 6 5 5 5 5 5 5 5 6 6 6 6 6 6 6
3 3 4 4 4 4 4 4 4 4 4 4 5 5 5 5 5 5 5 5 5 5 5 5 6 6 5 5 5 5 5 5 4 4 4 5 5 5 5 6 6 6 6
3 3 3 3 4 3 3 3 3 3 3 4 4 4 4 4 4 4 4 4 5 5 5 5 5 5 5 5 5 5 5 5 5 4 4 4 4 5 5 5 5 5 5
2 2 2 3 3 3 3 3 3 3 3 3 3 3 4 4 4 4 4 4 4 4 4 4 4 4 4 4 4 4 4 4 4 4 4 3 4 4 4 4 4 4 4
Wind_Speed
4 5 4 6 8 10 10 10 11 12 12 12 12 12 12 12 13 13 13 14 14 14 14 15 15 16 16 16 16 16 16 17 17 17 17 17 17 17 16 15 14 16 17
5 6 6 7 9 10 11 11 11 12 12 12 12 12 12 12 13 13 13 13 13 14 14 15 15 15 16 16 16 16 16 16 16 16 15 16 17 16 16 15 16 15 16
5 7 7 8 9 10 11 11 11 11 12 12 12 12 12 12 12 13 13 13 13 13 14 14 15 15 15 15 15 16 16 16 14 13 11 13 15 16 16 16 16 16 16
5 6 7 8 9 10 11 11 11 11 12 12 12 12 12 12 12 12 12 13 13 13 14 14 14 15 15 15 15 15 15 15 12 10 11 12 13 15 15 16 16 16 16
5 6 7 8 10 10 11 11 11 11 11 11 12 12 12 12 12 12 12 13 13 14 14 14 14 14 14 14 14 14 14 13 11 11 12 12 13 14 15 15 16 16 16
5 6 8 8 10 11 10 11 11 11 11 11 11 12 12 12 12 12 12 13 13 13 13 14 13 14 14 14 14 14 13 10 10 11 11 12 12 14 14 15 15 15 15
5 6 8 9 10 11 11 10 11 11 11 11 11 11 12 12 12 12 12 13 13 13 13 13 13 13 13 14 13 13 11 9 10 11 11 12 13 14 14 14 14 14 15
5 6 7 8 9 10 11 10 10 10 11 11 11 11 11 12 12 12 12 12 13 13 13 13 13 13 13 13 13 12 11 9 10 11 11 11 12 13 13 13 13 14 14
5 5 6 7 8 10 10 10 9 10 10 10 10 11 11 11 12 12 12 12 12 12 13 13 13 13 13 13 13 12 11 9 9 9 9 10 11 12 13 13 14 14 14
4 4 5 5 7 8 9 9 9 9 10 10 10 10 11 12 11 11 11 12 12 12 12 13 13 13 13 13 12 12 10 7 9 9 9 10 12 12 13 13 14 14 15
3 3 4 5 5 7 8 9 9 9 9 10 10 10 10 9 9 9 10 11 12 12 12 12 12 13 12 12 12 10 8 7 9 8 9 11 11 12 13 13 14 14 14
5 3 3 4 5 6 6 7 7 6 6 7 7 8 7 7 7 8 10 10 11 11 12 12 12 11 9 8 9 8 7 8 8 8 9 10 11 11 12 12 13 13 13
6 4 3 4 4 5 5 5 5 5 5 6 6 7 7 7 6 6 6 7 8 9 8 9 8 7 7 6 6 6 6 7 7 8 9 10 10 11 11 11 12 12 12
6 5 3 4 4 5 5 5 5 5 4 5 5 6 6 5 5 5 4 5 5 5 6 6 6 7 7 7 6 7 6 6 6 7 9 10 10 10 10 10 11 11 11
5 5 4 4 4 5 5 5 5 4 4 5 5 6 6 5 5 4 4 4 5 5 5 5 6 6 6 6 6 6 6 7 7 7 8 10 10 10 10 10 10 10 10
6 5 4 4 5 6 5 5 4 4 4 4 5 5 6 5 5 4 4 4 4 4 5 5 6 6 5 6 6 6 6 6 6 7 7 9 10 10 10 10 10 10 10
6 6 6 5 5 6 5 5 5 4 4 4 4 5 6 6 6 5 4 4 4 4 5 6 6 6 5 5 5 5 6 6 6 7 7 7 7 9 10 9 9 9 9
6 6 6 5 5 6 5 5 5 5 4 4 4 4 5 5 6 5 4 4 4 4 5 5 5 5 5 4 4 4 5 6 6 6 6 6 6 6 7 8 8 8 8
6 6 6 6 6 6 6 6 5 5 4 4 4 4 5 5 6 5 4 4 4 4 4 4 5 5 5 4 4 4 4 5 5 5 6 7 7 6 6 8 8 8 8
5 6 6 6 6 6 5 5 5 4 4 4 4 4 5 5 5 5 5 5 5 4 4 4 5 5 5 5 5 4 4 4 4 5 5 6 7 7 6 6 6 7 8
5 6 6 6 6 6 5 5 4 3 3 3 4 5 5 5 5 5 5 5 4 4 4 5 5 6 4 4 4 3 3 4 4 4 4 4 5 6 6 6 5 5 5
5 6 6 7 7 6 5 5 4 4 3 3 4 4 5 5 5 4 5 4 4 4 5 5 5 4 3 2 2 3 2 2 2 2 3 3 3 4 5 5 5 5 4
5 6 6 7 7 7 6 5 5 4 3 3 3 3 4 5 5 4 5 5 4 4 4 5 5 4 4 2 1 1 2 3 1 1 2 2 2 2 3 4 4 4 4
4 4 5 6 7 7 7 7 8 6 5 4 4 4 4 4 5 5 4 5 5 4 4 4 4 3 5 3 1 1 1 1 2 2 2 1 1 1 1 2 3 3 4
4 4 5 6 7 7 7 7 7 6 5 4 4 5 5 4 4 5 5 4 4 4 4 4 4 4 3 3 2 1 1 1 1 2 2 2 1 0 1 1 1 2 3
4 4 5 6 7 7 7 7 7 7 6 6 5 5 4 3 3 4 5 5 4 4 4 4 4 4 3 3 2 2 1 1 1 1 2 2 2 1 1 1 1 1 2
Wind_Direction
162 155 158 147 138 128 121 118 117 117 115 113 112 112 110 107 105 102 99 97 95 93 92 89 89 88 86 83 80 79 77 76 75 74 72 72 73 75 73 70 75 78 77
160 159 154 140 133 129 122 119 116 116 115 113 112 110 110 109 106 104 102 100 98 96 94 91 89 88 86 84 82 80 79 78 76 75 77 77 74 74 72 65 66 76 77
147 153 154 139 129 129 126 124 119 117 117 115 112 111 109 109 108 106 105 102 100 98 96 95 92 90 87 85 83 82 81 79 76 76 81 82 79 75 76 74 75 77 78
145 151 153 139 133 130 130 127 123 120 118 116 114 113 113 112 109 106 106 104 102 99 98 97 94 92 89 87 85 83 81 79 74 76 79 80 81 78 77 77 76 77 77
143 151 149 137 134 133 132 131 127 124 121 118 116 115 115 114 112 109 107 105 103 100 98 97 95 93 92 90 87 84 82 79 75 77 79 79 80 78 77 77 76 75 75
144 151 148 140 136 134 131 132 130 127 125 122 120 118 117 116 113 111 108 106 104 102 102 100 98 96 94 92 90 85 81 79 86 81 80 78 78 77 77 78 78 76 76
143 148 149 141 136 133 130 129 130 130 128 126 124 122 119 117 116 113 110 108 106 105 105 104 102 101 97 95 92 87 79 72 80 82 78 77 76 77 78 79 79 77 75
134 133 140 137 135 132 130 126 129 129 127 126 124 122 120 118 117 114 112 110 108 107 107 105 104 101 99 97 94 89 80 76 84 82 80 79 75 78 80 80 79 78 77
121 122 127 141 141 135 131 127 123 126 125 123 120 119 117 114 113 115 113 111 110 109 109 107 104 99 98 97 94 90 84 75 84 82 80 78 75 79 80 81 81 79 77
117 121 122 129 140 145 141 131 123 122 124 121 116 112 113 112 109 110 114 112 111 111 110 109 106 101 97 95 92 87 85 84 83 82 78 77 75 78 79 80 81 80 78
132 129 129 127 129 132 136 130 125 116 117 119 116 110 114 118 117 112 106 108 110 110 108 108 106 103 101 95 91 90 87 82 82 77 75 75 77 78 78 79 81 80 79
163 150 135 129 123 125 121 128 127 122 124 128 129 127 123 117 109 108 100 101 106 109 107 104 105 107 105 102 97 95 89 84 81 78 74 73 77 79 79 79 80 80 80
169 154 138 136 132 126 121 118 119 118 115 118 120 124 125 118 112 107 108 109 113 115 113 111 113 107 103 101 101 95 89 86 83 80 74 71 74 75 78 78 78 79 79
169 163 150 138 136 133 126 120 116 118 114 112 116 119 124 118 114 110 107 112 115 120 120 118 114 109 104 103 101 97 91 87 86 83 76 72 75 77 79 78 79 78 78
176 171 160 143 143 136 127 119 112 112 116 119 120 118 121 121 122 118 111 107 109 117 122 119 115 111 105 100 96 97 93 89 88 89 86 77 76 79 81 80 78 78 77
187 181 168 156 148 138 132 127 118 114 118 116 116 119 120 120 120 120 113 110 112 118 123 123 120 113 105 99 95 94 94 94 92 90 89 84 77 76 77 77 78 76 75
192 183 175 165 151 144 141 135 124 118 116 110 114 122 122 122 123 120 116 113 111 120 123 123 118 112 105 101 97 88 87 91 92 90 86 84 83 77 74 73 72 73 73
191 181 175 165 156 150 141 137 128 125 119 112 115 122 123 125 126 123 117 113 118 122 121 125 128 127 120 111 100 87 84 86 86 86 85 81 75 74 76 71 71 69 69
194 184 175 170 163 156 146 137 130 124 116 113 115 119 124 126 130 127 118 117 128 123 118 119 123 125 121 107 94 85 78 78 79 81 79 74 67 65 71 71 69 66 63
193 186 176 171 168 160 152 138 125 120 119 118 121 122 126 128 135 127 120 123 129 125 124 124 119 114 115 111 102 83 72 73 69 68 71 72 66 61 64 67 70 67 60
187 185 179 172 171 167 167 163 153 158 150 141 133 129 130 127 132 127 123 126 128 134 134 133 127 117 108 115 115 104 87 81 74 64 63 66 64 58 57 59 61 64 61
190 188 183 179 174 176 177 173 169 165 160 149 133 125 128 132 132 130 131 131 134 135 134 133 131 133 120 123 142 151 154 155 94 59 58 59 59 59 55 52 55 57 57
190 189 187 181 178 177 171 159 146 144 148 154 155 146 141 135 134 134 140 137 139 141 144 145 148 145 151 137 107 182 181 185 158 145 81 63 52 53 54 47 44 43 45
200 190 186 179 178 176 173 167 163 167 169 177 173 158 144 143 138 133 138 142 144 142 150 155 153 153 157 157 139 34 351 131 173 170 174 122 58 37 38 38 36 34 36
204 192 185 178 176 175 173 171 173 175 172 164 163 155 153 150 149 143 140 143 145 145 155 154 153 154 162 164 162 150 109 94 186 191 197 209 240 294 11 10 24 21 25
196 189 185 179 177 175 172 174 178 177 171 162 163 164 163 161 157 155 153 151 151 149 156 161 161 160 160 160 161 159 157 166 190 189 199 217 242 250 264 251 286 344 353
Height
1527 1529 1530 1532 1534 1535 1536 1537 1538 1539 1540 1540 1541 1541 1542 1542 1543 1543 1543 1543 1543 1544 1544 1544 1544 1544 1544 1544 1544 1544 1544 1544 1544 1544 1544 1544 1544 1544 1544 1544 1544 1544 1544
1526 1528 1530 1532 1534 1535 1536 1537 1539 1540 1540 1541 1541 1542 1542 1543 1543 1544 1544 1544 1545 1545 1545 1545 1545 1545 1545 1545 1545 1545 1545 1545 1545 1546 1546 1546 1546 1546 1546 1546 1546 1546 1546
1526 1528 1530 1532 1533 1535 1536 1537 1539 1540 1541 1541 1542 1542 1543 1543 1544 1544 1545 1545 1546 1546 1546 1546 1546 1546 1547 1547 1547 1547 1547 1547 1547 1548 1548 1548 1548 1548 1548 1548 1548 1548 1548
1526 1528 1530 1532 1533 1535 1536 1537 1539 1540 1541 1542 1542 1543 1543 1544 1544 1545 1545 1546 1546 1547 1547 1547 1547 1547 1548 1548 1548 1548 1548 1548 1549 1549 1550 1550 1550 1550 1550 1550 1550 1550 1550
1526 1528 1530 1532 1533 1535 1536 1537 1539 1540 1541 1542 1542 1543 1544 1544 1545 1545 1546 1546 1547 1547 1548 1548 1548 1549 1549 1549 1549 1549 1550 1550 1550 1551 1551 1552 1552 1552 1552 1552 1552 1552 1552
1525 1527 1529 1531 1533 1534 1536 1537 1538 1540 1541 1542 1542 1543 1544 1544 1545 1546 1546 1547 1547 1548 1548 1549 1549 1550 1550 1550 1550 1551 1551 1552 1552 1553 1553 1553 1553 1553 1554 1554 1554 1554 1554
1525 1527 1529 1531 1532 1534 1535 1537 1538 1539 1541 1542 1542 1543 1544 1545 1545 1546 1547 1547 1548 1548 1549 1550 1550 1550 1551 1551 1552 1552 1553 1553 1554 1554 1554 1554 1555 1555 1555 1555 1555 1555 1555
1524 1526 1528 1530 1532 1533 1535 1536 1538 1539 1540 1541 1542 1543 1544 1545 1545 1546 1547 1548 1548 1549 1550 1550 1551 1551 1552 1552 1553 1553 1554 1554 1555 1555 1555 1556 1556 1556 1556 1556 1556 1557 1557
1523 1525 1527 1529 1531 1532 1534 1535 1537 1538 1540 1541 1542 1543 1544 1545 1546 1546 1547 1548 1549 1549 1550 1551 1551 1552 1552 1553 1553 1554 1555 1555 1556 1556 1557 1557 1557 1557 1557 1557 1557 1558 1558
1522 1524 1525 1527 1529 1531 1533 1534 1536 1537 1539 1540 1542 1543 1544 1545 1545 1546 1547 1548 1549 1550 1550 1551 1552 1552 1553 1553 1554 1555 1556 1556 1557 1557 1558 1558 1558 1558 1558 1558 1559 1559 1559
1521 1522 1524 1525 1527 1529 1531 1533 1534 1536 1538 1540 1541 1542 1543 1544 1545 1546 1547 1548 1549 1550 1551 1551 1552 1552 1553 1554 1554 1555 1556 1557 1557 1558 1558 1559 1559 1559 1559 1559 1560 1560 1560
1518 1520 1522 1524 1525 1527 1529 1531 1533 1535 1536 1538 1540 1541 1542 1543 1544 1545 1546 1547 1548 1549 1550 1551 1552 1553 1554 1554 1555 1556 1557 1557 1558 1558 1559 1560 1560 1560 1560 1560 1560 1560 1560
1516 1518 1519 1521 1523 1525 1527 1528 1530 1532 1534 1536 1538 1539 1541 1542 1543 1544 1545 1547 1548 1549 1550 1551 1552 1553 1553 1554 1555 1556 1556 1557 1558 1558 1559 1560 1560 1560 1560 1560 1561 1561 1561
1514 1515 1517 1519 1521 1523 1525 1526 1528 1530 1532 1534 1536 1537 1539 1540 1542 1543 1544 1546 1547 1548 1549 1550 1551 1552 1553 1554 1555 1555 1556 1557 1558 1558 1559 1559 1560 1560 1560 1561 1561 1561 1561
1512 1513 1514 1517 1519 1520 1522 1524 1526 1527 1530 1532 1534 1535 1537 1539 1540 1542 1543 1544 1546 1547 1548 1549 1550 1552 1553 1554 1554 1555 1556 1557 1557 1558 1558 1559 1559 1560 1560 1560 1561 1561 1561
1509 1510 1512 1514 1516 1518 1520 1522 1523 1525 1528 1530 1531 1533 1535 1537 1538 1540 1542 1543 1544 1546 1547 1548 1549 1551 1552 1553 1554 1555 1555 1556 1557 1557 1558 1559 1559 1560 1560 1560 1561 1561 1561
1506 1508 1509 1511 1513 1515 1517 1519 1521 1523 1525 1527 1529 1530 1533 1535 1536 1538 1540 1541 1543 1544 1546 1547 1548 1550 1551 1552 1553 1554 1555 1556 1557 1557 1558 1558 1559 1559 1560 1560 1560 1561 1561
1504 1505 1506 1509 1510 1512 1514 1517 1519 1521 1523 1524 1526 1528 1530 1532 1534 1536 1538 1539 1541 1543 1544 1545 1547 1548 1550 1551 1552 1553 1554 1555 1556 1557 1557 1558 1559 1559 1559 1560 1560 1560 1561
1500 1501 1503 1505 1507 1509 1512 1514 1516 1518 1520 1522 1524 1526 1527 1530 1532 1534 1536 1537 1539 1541 1542 1544 1545 1547 1548 1550 1551 1552 1553 1554 1555 1556 1557 1557 1558 1558 1559 1559 1560 1560 1560
1497 1499 1500 1502 1504 1506 1509 1511 1513 1515 1517 1519 1521 1523 1525 1527 1529 1531 1533 1535 1537 1539 1540 1542 1544 1545 1547 1548 1550 1551 1553 1554 1555 1555 1556 1556 1557 1558 1558 1558 1559 1559 1559
1494 1495 1496 1498 1500 1503 1505 1507 1509 1512 1514 1516 1519 1521 1522 1524 1526 1529 1531 1533 1535 1536 1538 1540 1542 1543 1545 1547 1549 1550 1552 1552 1553 1554 1554 1555 1556 1556 1557 1557 1557 1558 1558
1491 1492 1493 1494 1497 1499 1502 1504 1507 1508 1510 1513 1516 1517 1520 1522 1524 1526 1528 1530 1532 1534 1536 1537 1539 1541 1543 1545 1547 1548 1550 1553 1552 1552 1553 1553 1554 1555 1555 1555 1556 1556 1556
1487 1488 1490 1491 1493 1496 1498 1501 1503 1505 1508 1510 1512 1514 1517 1519 1522 1524 1526 1528 1529 1531 1533 1535 1537 1539 1541 1542 1544 1546 1548 1549 1550 1551 1550 1551 1552 1552 1553 1553 1554 1554 1554
1484 1486 1487 1489 1491 1493 1495 1497 1499 1501 1503 1506 1509 1511 1514 1517 1519 1521 1524 1525 1527 1529 1531 1533 1534 1537 1539 1540 1542 1543 1545 1545 1547 1547 1549 1549 1550 1550 1550 1551 1551 1551 1551
1482 1483 1485 1486 1488 1490 1492 1494 1496 1498 1501 1504 1506 1508 1512 1514 1517 1519 1521 1523 1525 1526 1529 1530 1532 1534 1536 1538 1539 1540 1541 1542 1543 1544 1545 1546 1547 1547 1548 1548 1548 1548 1548
1479 1480 1482 1483 1485 1486 1488 1490 1493 1496 1498 1501 1503 1505 1508 1511 1513 1515 1518 1520 1522 1524 1526 1528 1529 1531 1533 1534 1536 1537 1539 1540 1540 1541 1541 1542 1543 1544 1545 1545 1545 1545 1545